Location: Utrecht
(52.0907°N, 5.1214°E)
Time: 03:39:33
(UTC+02:00)

VELOX 1 - Pass Details

Date: 08 July 2022
Orbit: 624 x 639 km, 98.4° (Epoch: 07 August)

Event Time Altitude Azimuth Distance (km) Brightness Sun altitude
Rises 04:03:44 0° 102° (ESE) 2,940 ? -9.5°
Reaches altitude 10° 04:07:23 10° 71° (ENE) 2,039 ? -9.2°
Maximum altitude 04:08:53 12° 51° (NE) 1,935 ? -9.0°
Drops below altitude 10° 04:10:23 10° 31° (NNE) 2,044 ? -8.9°
Sets 04:14:03 0° 359° (N) 2,960 ? -8.6°
